sat.trackr.live / text

‹ back to catalog

STARLINK-11104 [DTC]

NORAD 59763 · 2024-091L

PAYLOAD ACTIVE UNKNOWN

§ Identity

Operator
Country
US
Launch date
2024-05-14
Launch site
AFWTR
Launch vehicle
Mass (kg)
RCS (m²)

Purposes: comms

External: N2YO · Heavens-Above · Gunter

§ Orbital elements

Epoch: 2026-09-21T10:54:23.201280Z

Period
91.74 min
Inclination
53.1599°
Eccentricity
0.0001476
Mean motion
15.69703947 rev/d
Perigee alt
358.7 km
Apogee alt
360.7 km
Semi-major
6,737.9 km
B*
9.0640e-6
RAAN
320.9760°
Arg perigee
97.7941°
Mean anomaly
262.3245°
Rev number
13,626

§ Raw data

STARLINK-11104 [DTC]1 59763U 24091L   26264.45443520  .00000509  00000+0  90640-5 0  99902 59763  53.1599 320.9760 0001476  97.7941 262.3245 15.69703947136269

JSON: /api/v1/satellites/59763 · /tle

For live sub-satellite position, see the globe view (requires WebGL).

§ Visibility from observer

Set your observer location to see the next 7 days of passes ≥ 10°. The values pass through the URL so the page stays shareable.

No JS? Fill the form by hand. The geolocation button needs JavaScript.